Location: Pavia
(45.1670°N, 9.1670°E)
Time: 10:49:15
(UTC+01:00)

ISS - Visible Passes

Search period start: 17 January 2019 00:00
Search period end: 27 January 2019 00:00
Orbit: 404 x 407 km, 51.6° (Epoch: 17 January)

Date Brightness Start Highest point End Pass type
(mag) Time Alt. Az. Time Alt. Az. Time Alt. Az.
21 Jan -1.4 18:43:26 10° SSE 18:44:18 12° SE 18:44:18 12° SE visible
22 Jan -2.1 19:25:50 10° SW 19:27:33 27° SSW 19:27:33 27° SSW visible
23 Jan -2.5 18:34:21 10° SSW 18:37:09 27° SE 18:38:01 23° ESE visible
23 Jan -0.5 20:10:17 10° WSW 20:10:43 13° W 20:10:43 13° W visible
24 Jan -3.5 19:18:12 10° WSW 19:21:05 65° W 19:21:05 65° W visible
25 Jan -3.6 18:26:18 10° SW 18:29:31 59° SE 18:31:23 23° ENE visible
25 Jan -0.8 20:03:08 10° W 20:04:04 17° WNW 20:04:04 17° WNW visible
26 Jan -3.2 19:10:53 10° W 19:14:03 45° NNW 19:14:18 44° N visible
